Terminal Aerodrome Forecast
Issued by NWS Chicago, IL

Home | Current Version | Previous Version | Graphics & Text | Print | Product List | Glossary On
Versions: 1 2 3 4 5 6 7 8 9 10 11 12 13 14 15 16 17 18 19 20 21 22 23 24 25 26 27 28 29 30 31
000
FTUS43 KLOT 310529
TAFRFD
TAF
KRFD 310529Z 3106/0106 25005KT P6SM SKC
     FM311600 29015G23KT P6SM FEW080 FEW250
     FM010200 29009KT P6SM SKC=

USA.gov is the U.S. government's official web portal to all federal, state and local government web resources and services.